User: anonymous   Login
Location: Unspecified
(0.0000°N, 0.0000°E)
Time: 06:06:07
(UTC+00:00)
Language:

GALILEO 10 (206) - Orbit

View from above orbital plane
View from above orbital plane
View from above satellite
View from above satellite

Ground track
Ground track

The orbit data is extracted from the following two-line orbital elements,

1 40890U 15045B   18229.09812359 -.00000052  00000-0  00000+0 0  9992
2 40890  56.6878 300.5023 0001194 231.6615 128.3928  1.70475311 18264
Epoch (UTC): 17 August 2018 02:21:17
Eccentricity: 0.0001194
inclination: 56.6878°
perigee height: 23218 km
apogee height: 23225 km
right ascension of ascending node: 300.5023°
argument of perigee: 231.6615°
revolutions per day: 1.70475311
mean anomaly at epoch: 128.3928°
orbit number at epoch: 1826

The dashed part of the orbit path shows where the satellite is in the earth's shadow,  

DLR